Voltar ao catálogo

STARLINK-35346

AtivoComunicaçõesVLEO
NORAD 66179·PAYLOAD·🇺🇸 United States

Lançado Oct 26, 2025 de Cape Canaveral Space Force Station

Loading…

Próximas Passagens (próximas 24 horas)

TLE

AtualizadoSource: CelesTrak SupGP

Época: Sep 14, 2026, 20:48 UTC

1 66179C 25243C   26257.86715278  .00004508  00000+0  13322-3 0  2578
2 66179  53.1581  83.7007 0001045  85.0040  64.0185 15.34383343    18

Acompanhe STARLINK-35346 em tempo real com AllMySat

Download on the App Store